Location: Newark
(58.8333°N, 23.5833°E)
Time: 22:04:34
(UTC+00:00)

Explorer 7 - Pass Details

Date: 23 November 2019
Orbit: 485 x 680 km, 50.3° (Epoch: 08 December)

Event Time Altitude Azimuth Distance (km) Brightness Sun altitude
Rises 01:06:57 0° 262° (W) 2,883 - -40.3°
Reaches altitude 10° 01:09:41 10° 248° (WSW) 1,938 - -40.0°
Maximum altitude 01:13:09 23° 196° (SSW) 1,257 - -39.6°
Drops below altitude 10° 01:16:26 10° 144° (SE) 1,836 - -39.2°
Sets 01:18:57 0° 130° (SE) 2,691 - -39.0°
